Location: ????
(33.1659°N, 35.6604°E)
Time: 13:13:35
(UTC+00:00)

Cosmos 864 Rocket - Pass Details

Date: 20 September 2019
Orbit: 954 x 991 km, 82.9° (Epoch: 17 October)

Event Time Altitude Azimuth Distance (km) Brightness Sun altitude
Rises 17:59:32 0° 353° (N) 3,667 7.9 -29.8°
Reaches altitude 10° 18:02:02 10° 352° (N) 2,722 7.2 -30.2°
Enters shadow 18:07:51 77° 323° (NW) 1,006 4.5 -31.3°
